Time,TemperatureF,DewpointF,PressureIn,WindDirection,WindDirectionDegrees,WindSpeedMPH,WindSpeedGustMPH,Humidity,HourlyPrecipIn,Conditions,Clouds,dailyrainin,SoftwareType,DateUTC
2013-03-15 00:03:00,27.6,25.8,30.12,WSW,258,0.0,0.0,93,0.00,,,0.00,Wunderground v.1.15,2013-03-15 05:03:00,
2013-03-15 00:09:00,27.3,25.5,30.12,WSW,258,0.0,0.0,93,0.00,,,0.00,Wunderground v.1.15,2013-03-15 05:09:00,
2013-03-15 00:14:00,27.1,25.3,30.11,WSW,258,0.0,0.0,93,0.00,,,0.00,Wunderground v.1.15,2013-03-15 05:14:00,
2013-03-15 00:20:00,26.9,25.1,30.11,WSW,256,2.0,2.0,93,0.00,,,0.00,Wunderground v.1.15,2013-03-15 05:20:00,
2013-03-15 00:25:00,26.9,25.1,30.11,WSW,256,0.0,2.0,93,0.00,,,0.00,Wunderground v.1.15,2013-03-15 05:25:00,
2013-03-15 00:31:00,26.7,24.9,30.10,WSW,256,2.0,2.0,93,0.00,,,0.00,Wunderground v.1.15,2013-03-15 05:31:00,
2013-03-15 00:36:00,26.7,24.9,30.10,WSW,256,0.0,2.0,93,0.00,,,0.00,Wunderground v.1.15,2013-03-15 05:36:00,
2013-03-15 00:41:00,26.6,24.8,30.10,WSW,256,0.0,0.0,93,0.00,,,0.00,Wunderground v.1.15,2013-03-15 05:41:00,
2013-03-15 00:47:00,26.6,24.8,30.09,WSW,256,0.0,0.0,93,0.00,,,0.00,Wunderground v.1.15,2013-03-15 05:47:00,
2013-03-15 00:52:00,26.6,25.1,30.09,WSW,256,1.0,1.0,94,0.00,,,0.00,Wunderground v.1.15,2013-03-15 05:52:00,
2013-03-15 00:58:00,26.9,25.4,30.09,WSW,256,0.0,1.0,94,0.00,,,0.00,Wunderground v.1.15,2013-03-15 05:58:00,
2013-03-15 01:04:00,26.9,25.4,30.09,WSW,250,0.0,0.0,94,0.00,,,0.00,Wunderground v.1.15,2013-03-15 06:04:00,
2013-03-15 01:09:00,27.0,25.5,30.09,WSW,250,0.0,1.0,94,0.00,,,0.00,Wunderground v.1.15,2013-03-15 06:09:00,
2013-03-15 01:15:00,26.9,25.4,30.09,WSW,250,0.0,0.0,94,0.00,,,0.00,Wunderground v.1.15,2013-03-15 06:15:00,
2013-03-15 01:20:00,27.0,25.5,30.09,WSW,251,1.0,1.0,94,0.00,,,0.00,Wunderground v.1.15,2013-03-15 06:20:00,
2013-03-15 01:25:00,27.1,25.6,30.09,West,259,0.0,1.0,94,0.00,,,0.00,Wunderground v.1.15,2013-03-15 06:25:00,
2013-03-15 01:31:00,27.2,26.0,30.08,West,259,0.0,0.0,95,0.00,,,0.00,Wunderground v.1.15,2013-03-15 06:31:00,
2013-03-15 01:36:00,27.3,25.8,30.08,West,259,0.0,0.0,94,0.00,,,0.00,Wunderground v.1.15,2013-03-15 06:36:00,
2013-03-15 01:42:00,27.4,26.2,30.08,West,259,1.0,1.0,95,0.00,,,0.00,Wunderground v.1.15,2013-03-15 06:42:00,
2013-03-15 01:47:00,27.8,26.6,30.08,WSW,239,0.0,4.0,95,0.00,,,0.00,Wunderground v.1.15,2013-03-15 06:47:00,
2013-03-15 01:52:00,27.9,26.7,30.08,WSW,237,2.0,2.0,95,0.00,,,0.00,Wunderground v.1.15,2013-03-15 06:52:00,
2013-03-15 01:57:00,28.1,26.9,30.08,WSW,258,0.0,2.0,95,0.00,,,0.00,Wunderground v.1.15,2013-03-15 06:57:00,
2013-03-15 02:02:00,28.1,26.9,30.08,WSW,258,0.0,1.0,95,0.00,,,0.00,Wunderground v.1.15,2013-03-15 07:02:00,
2013-03-15 02:07:00,28.2,27.0,30.07,West,267,0.0,1.0,95,0.00,,,0.00,Wunderground v.1.15,2013-03-15 07:07:00,
2013-03-15 02:12:00,28.2,27.0,30.07,West,269,0.0,2.0,95,0.00,,,0.00,Wunderground v.1.15,2013-03-15 07:12:00,
2013-03-15 02:17:00,28.2,27.0,30.07,West,269,0.0,2.0,95,0.00,,,0.00,Wunderground v.1.15,2013-03-15 07:17:00,
2013-03-15 02:22:00,28.1,26.9,30.07,West,269,0.0,0.0,95,0.00,,,0.00,Wunderground v.1.15,2013-03-15 07:22:00,
2013-03-15 02:27:00,28.1,26.9,30.07,West,271,1.0,2.0,95,0.00,,,0.00,Wunderground v.1.15,2013-03-15 07:27:00,
2013-03-15 02:32:00,28.1,26.9,30.06,West,273,0.0,1.0,95,0.00,,,0.00,Wunderground v.1.15,2013-03-15 07:32:00,
2013-03-15 02:37:00,28.1,26.9,30.06,West,273,0.0,1.0,95,0.00,,,0.00,Wunderground v.1.15,2013-03-15 07:37:00,
2013-03-15 02:42:00,28.1,26.9,30.06,West,273,0.0,1.0,95,0.00,,,0.00,Wunderground v.1.15,2013-03-15 07:42:00,
2013-03-15 02:47:00,28.0,26.8,30.05,West,273,0.0,2.0,95,0.00,,,0.00,Wunderground v.1.15,2013-03-15 07:47:00,
2013-03-15 02:53:00,28.0,26.8,30.05,West,273,0.0,0.0,95,0.00,,,0.00,Wunderground v.1.15,2013-03-15 07:53:00,
2013-03-15 02:58:00,27.9,26.7,30.05,West,273,0.0,0.0,95,0.00,,,0.00,Wunderground v.1.15,2013-03-15 07:58:00,
2013-03-15 03:03:00,27.8,26.6,30.05,West,273,0.0,0.0,95,0.00,,,0.00,Wunderground v.1.15,2013-03-15 08:03:00,
2013-03-15 03:08:00,27.7,26.5,30.05,West,273,0.0,0.0,95,0.00,,,0.00,Wunderground v.1.15,2013-03-15 08:08:00,
2013-03-15 03:13:00,27.6,26.4,30.04,West,273,0.0,0.0,95,0.00,,,0.00,Wunderground v.1.15,2013-03-15 08:13:00,
2013-03-15 03:18:00,27.5,26.3,30.04,West,273,0.0,0.0,95,0.00,,,0.00,Wunderground v.1.15,2013-03-15 08:18:00,
2013-03-15 03:23:00,27.3,26.1,30.04,West,273,0.0,0.0,95,0.00,,,0.00,Wunderground v.1.15,2013-03-15 08:23:00,
2013-03-15 03:28:00,27.2,25.7,30.03,West,273,0.0,0.0,94,0.00,,,0.00,Wunderground v.1.15,2013-03-15 08:28:00,
2013-03-15 03:34:00,27.1,25.6,30.03,West,273,0.0,0.0,94,0.00,,,0.00,Wunderground v.1.15,2013-03-15 08:34:00,
2013-03-15 03:39:00,27.0,25.8,30.03,West,273,0.0,0.0,95,0.00,,,0.00,Wunderground v.1.15,2013-03-15 08:39:00,
2013-03-15 03:44:00,26.9,25.7,30.03,West,273,0.0,0.0,95,0.00,,,0.00,Wunderground v.1.15,2013-03-15 08:44:00,
2013-03-15 03:49:00,26.9,25.7,30.02,West,273,0.0,0.0,95,0.00,,,0.00,Wunderground v.1.15,2013-03-15 08:49:00,
2013-03-15 03:54:00,26.9,25.7,30.02,West,273,0.0,0.0,95,0.00,,,0.00,Wunderground v.1.15,2013-03-15 08:54:00,
2013-03-15 03:59:00,26.8,25.6,30.02,West,273,0.0,1.0,95,0.00,,,0.00,Wunderground v.1.15,2013-03-15 08:59:00,
2013-03-15 04:04:00,27.0,25.8,30.02,West,279,0.0,2.0,95,0.00,,,0.00,Wunderground v.1.15,2013-03-15 09:04:00,
2013-03-15 04:09:00,27.2,26.0,30.02,West,280,0.0,2.0,95,0.00,,,0.00,Wunderground v.1.15,2013-03-15 09:09:00,
2013-03-15 04:14:00,27.2,26.0,30.02,West,280,1.0,1.0,95,0.00,,,0.00,Wunderground v.1.15,2013-03-15 09:14:00,
2013-03-15 04:19:00,27.4,26.2,30.02,West,280,0.0,2.0,95,0.00,,,0.00,Wunderground v.1.15,2013-03-15 09:19:00,
2013-03-15 04:24:00,27.4,26.2,30.01,West,280,0.0,0.0,95,0.00,,,0.00,Wunderground v.1.15,2013-03-15 09:24:00,
2013-03-15 04:29:00,27.2,26.0,30.01,West,280,0.0,0.0,95,0.00,,,0.00,Wunderground v.1.15,2013-03-15 09:29:00,
2013-03-15 04:34:00,27.0,25.8,30.01,West,280,0.0,0.0,95,0.00,,,0.00,Wunderground v.1.15,2013-03-15 09:34:00,
2013-03-15 04:39:00,26.9,25.7,30.01,West,280,0.0,0.0,95,0.00,,,0.00,Wunderground v.1.15,2013-03-15 09:39:00,
2013-03-15 04:45:00,26.9,25.7,30.01,West,280,1.0,1.0,95,0.00,,,0.00,Wunderground v.1.15,2013-03-15 09:45:00,
2013-03-15 04:50:00,27.1,25.9,30.01,West,280,0.0,1.0,95,0.00,,,0.00,Wunderground v.1.15,2013-03-15 09:50:00,
2013-03-15 04:55:00,27.1,25.9,30.01,West,280,0.0,0.0,95,0.00,,,0.00,Wunderground v.1.15,2013-03-15 09:55:00,
2013-03-15 05:01:00,26.9,25.7,30.00,West,280,0.0,0.0,95,0.00,,,0.00,Wunderground v.1.15,2013-03-15 10:01:00,
2013-03-15 05:06:00,26.6,25.4,30.00,West,280,0.0,0.0,95,0.00,,,0.00,Wunderground v.1.15,2013-03-15 10:06:00,
2013-03-15 05:11:00,26.5,25.3,30.00,West,280,0.0,0.0,95,0.00,,,0.00,Wunderground v.1.15,2013-03-15 10:11:00,
2013-03-15 05:16:00,26.5,25.3,30.00,West,280,0.0,0.0,95,0.00,,,0.00,Wunderground v.1.15,2013-03-15 10:16:00,
2013-03-15 05:21:00,26.6,25.4,30.01,West,280,0.0,0.0,95,0.00,,,0.00,Wunderground v.1.15,2013-03-15 10:21:00,
2013-03-15 05:27:00,26.6,25.4,30.01,West,280,0.0,0.0,95,0.00,,,0.00,Wunderground v.1.15,2013-03-15 10:27:00,
2013-03-15 05:32:00,26.7,25.5,30.01,West,280,0.0,0.0,95,0.00,,,0.00,Wunderground v.1.15,2013-03-15 10:32:00,
2013-03-15 05:37:00,26.7,25.5,30.01,West,280,0.0,0.0,95,0.00,,,0.00,Wunderground v.1.15,2013-03-15 10:37:00,
2013-03-15 05:42:00,26.6,25.4,30.01,West,280,0.0,0.0,95,0.00,,,0.00,Wunderground v.1.15,2013-03-15 10:42:00,
2013-03-15 05:47:00,26.7,25.5,30.00,West,280,0.0,0.0,95,0.00,,,0.00,Wunderground v.1.15,2013-03-15 10:47:00,
2013-03-15 05:53:00,26.9,25.7,30.00,West,280,0.0,0.0,95,0.00,,,0.00,Wunderground v.1.15,2013-03-15 10:53:00,
2013-03-15 05:58:00,27.0,25.8,30.00,West,280,0.0,0.0,95,0.00,,,0.00,Wunderground v.1.15,2013-03-15 10:58:00,
2013-03-15 06:03:00,27.2,26.0,30.00,West,280,0.0,0.0,95,0.00,,,0.00,Wunderground v.1.15,2013-03-15 11:03:00,
2013-03-15 06:08:00,27.3,26.1,30.00,West,280,0.0,0.0,95,0.00,,,0.00,Wunderground v.1.15,2013-03-15 11:08:00,
2013-03-15 06:13:00,27.3,26.1,30.00,West,280,0.0,0.0,95,0.00,,,0.00,Wunderground v.1.15,2013-03-15 11:13:00,
2013-03-15 06:18:00,27.3,26.1,30.00,West,280,0.0,0.0,95,0.00,,,0.00,Wunderground v.1.15,2013-03-15 11:18:00,
2013-03-15 06:23:00,27.3,26.1,29.99,West,280,0.0,0.0,95,0.00,,,0.00,Wunderground v.1.15,2013-03-15 11:23:00,
2013-03-15 06:28:00,27.3,26.1,30.00,West,280,0.0,0.0,95,0.00,,,0.00,Wunderground v.1.15,2013-03-15 11:28:00,
2013-03-15 06:33:00,27.3,26.1,29.99,West,280,0.0,0.0,95,0.00,,,0.00,Wunderground v.1.15,2013-03-15 11:33:00,
2013-03-15 06:39:00,27.0,25.8,30.00,West,280,0.0,2.0,95,0.00,,,0.00,Wunderground v.1.15,2013-03-15 11:39:00,
2013-03-15 06:44:00,27.0,25.8,29.99,West,280,0.0,0.0,95,0.00,,,0.00,Wunderground v.1.15,2013-03-15 11:44:00,
2013-03-15 06:49:00,26.9,25.7,30.00,West,280,0.0,0.0,95,0.00,,,0.00,Wunderground v.1.15,2013-03-15 11:49:00,
2013-03-15 06:54:00,26.3,25.3,30.00,SW,221,0.0,0.0,96,0.00,,,0.00,Wunderground v.1.15,2013-03-15 11:54:00,
2013-03-15 06:59:00,26.3,25.3,30.00,SW,221,0.0,0.0,96,0.00,,,0.00,Wunderground v.1.15,2013-03-15 11:59:00,
2013-03-15 07:04:00,26.3,25.3,29.99,SW,221,0.0,0.0,96,0.00,,,0.00,Wunderground v.1.15,2013-03-15 12:04:00,
2013-03-15 07:09:00,26.3,25.3,29.99,SW,221,0.0,0.0,96,0.00,,,0.00,Wunderground v.1.15,2013-03-15 12:09:00,
2013-03-15 07:14:00,26.3,25.3,29.99,SW,221,0.0,0.0,96,0.00,,,0.00,Wunderground v.1.15,2013-03-15 12:14:00,
2013-03-15 07:19:00,26.3,25.3,29.99,SW,221,0.0,0.0,96,0.00,,,0.00,Wunderground v.1.15,2013-03-15 12:19:00,
2013-03-15 07:24:00,26.3,25.3,29.99,SW,221,0.0,0.0,96,0.00,,,0.00,Wunderground v.1.15,2013-03-15 12:24:00,
2013-03-15 07:29:00,26.5,25.5,29.99,SW,221,0.0,0.0,96,0.00,,,0.00,Wunderground v.1.15,2013-03-15 12:29:00,
2013-03-15 07:35:00,26.5,25.5,29.99,SW,221,0.0,0.0,96,0.00,,,0.00,Wunderground v.1.15,2013-03-15 12:35:00,
2013-03-15 07:41:00,26.7,25.7,29.99,SW,221,0.0,0.0,96,0.00,,,0.00,Wunderground v.1.15,2013-03-15 12:41:00,
2013-03-15 07:46:00,26.7,25.7,29.99,SW,221,0.0,0.0,96,0.00,,,0.00,Wunderground v.1.15,2013-03-15 12:46:00,
2013-03-15 07:51:00,26.8,25.8,29.99,SW,221,0.0,0.0,96,0.00,,,0.00,Wunderground v.1.15,2013-03-15 12:51:00,
2013-03-15 07:56:00,26.9,25.9,29.99,SW,221,0.0,0.0,96,0.00,,,0.00,Wunderground v.1.15,2013-03-15 12:56:00,
2013-03-15 08:02:00,27.1,26.1,29.99,SW,221,0.0,0.0,96,0.00,,,0.00,Wunderground v.1.15,2013-03-15 13:02:00,
2013-03-15 08:07:00,27.3,26.3,29.99,SW,221,0.0,0.0,96,0.00,,,0.00,Wunderground v.1.15,2013-03-15 13:07:00,
2013-03-15 08:12:00,27.4,26.7,29.99,SW,221,0.0,0.0,97,0.00,,,0.00,Wunderground v.1.15,2013-03-15 13:12:00,
2013-03-15 08:17:00,27.5,26.8,29.99,SW,221,0.0,0.0,97,0.00,,,0.00,Wunderground v.1.15,2013-03-15 13:17:00,
2013-03-15 08:22:00,27.7,27.0,29.99,SW,221,0.0,0.0,97,0.00,,,0.00,Wunderground v.1.15,2013-03-15 13:22:00,
2013-03-15 08:28:00,27.9,26.9,29.99,SW,221,0.0,1.0,96,0.00,,,0.00,Wunderground v.1.15,2013-03-15 13:28:00,
2013-03-15 08:33:00,28.1,27.4,29.99,SW,221,0.0,2.0,97,0.00,,,0.00,Wunderground v.1.15,2013-03-15 13:33:00,
2013-03-15 08:38:00,28.2,27.5,29.99,SW,221,0.0,2.0,97,0.00,,,0.00,Wunderground v.1.15,2013-03-15 13:38:00,
2013-03-15 08:43:00,28.4,27.7,29.98,SW,221,0.0,0.0,97,0.00,,,0.00,Wunderground v.1.15,2013-03-15 13:43:00,
2013-03-15 08:48:00,28.5,27.8,29.98,SW,221,0.0,0.0,97,0.00,,,0.00,Wunderground v.1.15,2013-03-15 13:48:00,
2013-03-15 08:53:00,28.7,28.0,29.99,SW,221,0.0,0.0,97,0.00,,,0.00,Wunderground v.1.15,2013-03-15 13:53:00,
2013-03-15 08:58:00,28.8,28.1,29.98,SW,221,0.0,0.0,97,0.00,,,0.00,Wunderground v.1.15,2013-03-15 13:58:00,
2013-03-15 09:03:00,29.0,28.3,29.98,SW,221,0.0,0.0,97,0.00,,,0.00,Wunderground v.1.15,2013-03-15 14:03:00,
2013-03-15 09:08:00,29.2,28.5,29.98,SW,221,0.0,0.0,97,0.00,,,0.00,Wunderground v.1.15,2013-03-15 14:08:00,
2013-03-15 09:13:00,29.4,28.7,29.98,SW,221,0.0,0.0,97,0.00,,,0.00,Wunderground v.1.15,2013-03-15 14:13:00,
2013-03-15 09:19:00,29.7,29.0,29.98,SW,221,0.0,0.0,97,0.00,,,0.00,Wunderground v.1.15,2013-03-15 14:19:00,
2013-03-15 09:24:00,29.8,29.1,29.98,SW,221,0.0,0.0,97,0.00,,,0.00,Wunderground v.1.15,2013-03-15 14:24:00,
2013-03-15 09:29:00,29.9,29.2,29.98,SW,221,0.0,0.0,97,0.00,,,0.00,Wunderground v.1.15,2013-03-15 14:29:00,
2013-03-15 09:34:00,30.1,29.4,29.98,SW,221,0.0,0.0,97,0.00,,,0.00,Wunderground v.1.15,2013-03-15 14:34:00,
2013-03-15 09:39:00,30.2,29.2,29.98,SW,221,0.0,2.0,96,0.00,,,0.00,Wunderground v.1.15,2013-03-15 14:39:00,
2013-03-15 09:45:00,30.4,29.7,29.98,SW,221,0.0,0.0,97,0.00,,,0.00,Wunderground v.1.15,2013-03-15 14:45:00,
2013-03-15 09:50:00,30.7,29.7,29.98,SW,221,0.0,2.0,96,0.00,,,0.00,Wunderground v.1.15,2013-03-15 14:50:00,
2013-03-15 09:55:00,30.9,29.9,29.97,SW,221,2.0,3.0,96,0.00,,,0.00,Wunderground v.1.15,2013-03-15 14:55:00,
2013-03-15 10:00:00,31.1,30.1,29.97,SW,221,2.0,2.0,96,0.00,,,0.00,Wunderground v.1.15,2013-03-15 15:00:00,
2013-03-15 10:06:00,31.2,30.2,29.97,SW,221,0.0,3.0,96,0.00,,,0.00,Wunderground v.1.15,2013-03-15 15:06:00,
2013-03-15 10:11:00,31.4,30.4,29.97,SW,221,0.0,1.0,96,0.00,,,0.00,Wunderground v.1.15,2013-03-15 15:11:00,
2013-03-15 10:17:00,31.5,30.5,29.97,NNW,346,1.0,2.0,96,0.00,,,0.00,Wunderground v.1.15,2013-03-15 15:17:00,
2013-03-15 10:22:00,31.7,30.4,29.97,NNW,346,0.0,0.0,95,0.00,,,0.00,Wunderground v.1.15,2013-03-15 15:22:00,
2013-03-15 10:27:00,32.0,30.7,29.97,NNW,345,0.0,1.0,95,0.00,,,0.00,Wunderground v.1.15,2013-03-15 15:27:00,
2013-03-15 10:32:00,32.3,31.0,29.97,NNW,346,0.0,2.0,95,0.00,,,0.00,Wunderground v.1.15,2013-03-15 15:32:00,
2013-03-15 10:37:00,32.4,31.1,29.97,NE,44,0.0,5.0,95,0.00,,,0.00,Wunderground v.1.15,2013-03-15 15:37:00,
2013-03-15 10:43:00,32.6,31.1,29.96,NNE,25,0.0,2.0,94,0.00,,,0.00,Wunderground v.1.15,2013-03-15 15:43:00,
2013-03-15 10:48:00,32.8,31.0,29.96,NNE,19,3.0,9.0,93,0.00,,,0.00,Wunderground v.1.15,2013-03-15 15:48:00,
2013-03-15 10:53:00,32.8,30.7,29.96,ENE,60,2.0,3.0,92,0.00,,,0.00,Wunderground v.1.15,2013-03-15 15:53:00,
2013-03-15 10:58:00,33.0,30.9,29.95,NW,318,0.0,4.0,92,0.00,,,0.00,Wunderground v.1.15,2013-03-15 15:58:00,
2013-03-15 11:03:00,33.1,30.8,29.95,ENE,61,2.0,2.0,91,0.00,,,0.00,Wunderground v.1.15,2013-03-15 16:03:00,
2013-03-15 11:09:00,33.1,30.8,29.95,ENE,61,0.0,2.0,91,0.00,,,0.00,Wunderground v.1.15,2013-03-15 16:09:00,
2013-03-15 11:14:00,33.1,30.8,29.95,ENE,62,0.0,3.0,91,0.00,,,0.00,Wunderground v.1.15,2013-03-15 16:14:00,
2013-03-15 11:20:00,34.6,31.1,29.96,North,360,2.0,3.0,87,0.00,,,0.50,Wunderground v.1.15,2013-03-15 16:20:00,
2013-03-15 11:26:00,34.5,31.0,29.96,NW,325,2.0,2.0,87,0.00,,,0.50,Wunderground v.1.15,2013-03-15 16:26:00,
2013-03-15 11:31:00,34.6,31.1,29.96,NW,325,0.0,1.0,87,0.00,,,0.50,Wunderground v.1.15,2013-03-15 16:31:00,
2013-03-15 11:36:00,34.8,31.3,29.96,NW,326,0.0,1.0,87,0.00,,,0.50,Wunderground v.1.15,2013-03-15 16:36:00,
2013-03-15 11:41:00,34.9,31.4,29.97,NW,326,0.0,0.0,87,0.00,,,0.50,Wunderground v.1.15,2013-03-15 16:41:00,
2013-03-15 11:46:00,35.1,31.6,29.97,NW,326,0.0,1.0,87,0.00,,,0.50,Wunderground v.1.15,2013-03-15 16:46:00,
2013-03-15 11:52:00,35.3,31.8,29.97,NW,326,0.0,1.0,87,0.00,,,0.50,Wunderground v.1.15,2013-03-15 16:52:00,
2013-03-15 11:57:00,35.3,31.5,29.96,NW,325,2.0,2.0,86,0.00,,,0.50,Wunderground v.1.15,2013-03-15 16:57:00,
2013-03-15 12:02:00,35.2,31.4,29.96,NNW,335,0.0,1.0,86,0.00,,,0.50,Wunderground v.1.15,2013-03-15 17:02:00,
2013-03-15 12:07:00,35.3,31.8,29.96,NNW,335,0.0,1.0,87,0.00,,,0.50,Wunderground v.1.15,2013-03-15 17:07:00,
2013-03-15 12:12:00,35.4,31.9,29.96,NNW,335,0.0,0.0,87,0.00,,,0.50,Wunderground v.1.15,2013-03-15 17:12:00,
2013-03-15 12:17:00,35.5,32.0,29.96,NNW,335,0.0,0.0,87,0.00,,,0.50,Wunderground v.1.15,2013-03-15 17:17:00,
2013-03-15 12:22:00,35.6,32.1,29.96,NNW,335,1.0,1.0,87,0.00,,,0.50,Wunderground v.1.15,2013-03-15 17:22:00,
2013-03-15 12:27:00,35.6,32.1,29.96,NNW,335,0.0,1.0,87,0.00,,,0.50,Wunderground v.1.15,2013-03-15 17:27:00,
2013-03-15 12:32:00,35.7,32.2,29.96,NNW,335,0.0,0.0,87,0.00,,,0.51,Wunderground v.1.15,2013-03-15 17:32:00,
2013-03-15 12:38:00,35.9,32.4,29.96,NNW,335,0.0,0.0,87,0.00,,,0.51,Wunderground v.1.15,2013-03-15 17:38:00,
2013-03-15 12:43:00,36.1,32.6,29.96,NNW,335,0.0,1.0,87,0.00,,,0.51,Wunderground v.1.15,2013-03-15 17:43:00,
2013-03-15 12:48:00,36.3,32.8,29.96,NNW,345,1.0,1.0,87,0.00,,,0.51,Wunderground v.1.15,2013-03-15 17:48:00,
2013-03-15 12:53:00,36.2,32.4,29.96,NNW,345,2.0,2.0,86,0.00,,,0.51,Wunderground v.1.15,2013-03-15 17:53:00,
2013-03-15 12:58:00,36.0,32.2,29.97,NNW,345,1.0,2.0,86,0.00,,,0.51,Wunderground v.1.15,2013-03-15 17:58:00,
2013-03-15 13:03:00,35.6,32.1,29.97,NNW,345,2.0,2.0,87,0.00,,,0.51,Wunderground v.1.15,2013-03-15 18:03:00,
2013-03-15 13:08:00,35.5,32.0,29.97,NNW,345,2.0,2.0,87,0.00,,,0.51,Wunderground v.1.15,2013-03-15 18:08:00,
2013-03-15 13:13:00,35.2,32.0,29.97,NNW,345,0.0,2.0,88,0.00,,,0.51,Wunderground v.1.15,2013-03-15 18:13:00,
2013-03-15 13:19:00,35.2,32.0,29.97,NNW,345,1.0,2.0,88,0.00,,,0.51,Wunderground v.1.15,2013-03-15 18:19:00,
2013-03-15 13:24:00,35.2,32.0,29.97,NNW,348,1.0,3.0,88,0.00,,,0.51,Wunderground v.1.15,2013-03-15 18:24:00,
2013-03-15 13:29:00,35.2,32.3,29.97,NNW,348,2.0,3.0,89,0.00,,,0.51,Wunderground v.1.15,2013-03-15 18:29:00,
2013-03-15 13:34:00,35.1,32.2,29.96,North,350,0.0,3.0,89,0.00,,,0.51,Wunderground v.1.15,2013-03-15 18:34:00,
2013-03-15 13:39:00,35.2,32.3,29.96,North,350,2.0,3.0,89,0.00,,,0.51,Wunderground v.1.15,2013-03-15 18:39:00,
2013-03-15 13:44:00,34.3,31.4,29.96,North,360,0.0,2.0,89,0.00,,,0.51,Wunderground v.1.15,2013-03-15 18:44:00,
2013-03-15 13:49:00,35.3,32.4,29.96,North,350,0.0,2.0,89,0.00,,,0.52,Wunderground v.1.15,2013-03-15 18:49:00,
2013-03-15 13:54:00,35.1,32.2,29.96,North,350,0.0,1.0,89,0.00,,,0.52,Wunderground v.1.15,2013-03-15 18:54:00,
2013-03-15 13:59:00,35.2,32.6,29.95,North,350,0.0,1.0,90,0.00,,,0.52,Wunderground v.1.15,2013-03-15 18:59:00,
2013-03-15 14:04:00,35.4,32.8,29.95,North,350,1.0,1.0,90,0.00,,,0.52,Wunderground v.1.15,2013-03-15 19:04:00,
2013-03-15 14:10:00,35.5,32.9,29.95,North,350,1.0,1.0,90,0.00,,,0.53,Wunderground v.1.15,2013-03-15 19:10:00,
2013-03-15 14:15:00,35.4,32.8,29.95,North,350,1.0,2.0,90,0.00,,,0.53,Wunderground v.1.15,2013-03-15 19:15:00,
2013-03-15 14:21:00,35.2,32.6,29.94,North,350,0.0,1.0,90,0.00,,,0.53,Wunderground v.1.15,2013-03-15 19:21:00,
2013-03-15 14:26:00,35.3,32.9,29.94,East,86,1.0,2.0,91,0.00,,,0.53,Wunderground v.1.15,2013-03-15 19:26:00,
2013-03-15 14:31:00,35.3,32.9,29.93,East,86,1.0,2.0,91,0.00,,,0.53,Wunderground v.1.15,2013-03-15 19:31:00,
2013-03-15 14:36:00,35.4,33.0,29.93,ENE,76,2.0,3.0,91,0.00,,,0.54,Wunderground v.1.15,2013-03-15 19:36:00,
2013-03-15 14:41:00,35.5,33.4,29.93,ENE,68,0.0,2.0,92,0.00,,,0.54,Wunderground v.1.15,2013-03-15 19:41:00,
2013-03-15 14:46:00,35.6,33.5,29.93,NE,53,1.0,3.0,92,0.00,,,0.54,Wunderground v.1.15,2013-03-15 19:46:00,
2013-03-15 14:51:00,35.5,33.4,29.93,East,91,2.0,3.0,92,0.00,,,0.54,Wunderground v.1.15,2013-03-15 19:51:00,
2013-03-15 14:56:00,35.3,33.2,29.92,East,87,2.0,4.0,92,0.00,,,0.54,Wunderground v.1.15,2013-03-15 19:56:00,
2013-03-15 15:01:00,35.2,33.1,29.92,ESE,120,3.0,3.0,92,0.00,,,0.54,Wunderground v.1.15,2013-03-15 20:01:00,
2013-03-15 15:07:00,35.2,33.1,29.92,SE,125,2.0,6.0,92,0.00,,,0.54,Wunderground v.1.15,2013-03-15 20:07:00,
2013-03-15 15:12:00,35.1,33.0,29.92,East,84,4.0,7.0,92,0.00,,,0.54,Wunderground v.1.15,2013-03-15 20:12:00,
2013-03-15 15:18:00,35.1,33.0,29.92,East,94,3.0,7.0,92,0.00,,,0.54,Wunderground v.1.15,2013-03-15 20:18:00,
2013-03-15 15:23:00,35.0,32.9,29.92,ESE,120,3.0,4.0,92,0.00,,,0.54,Wunderground v.1.15,2013-03-15 20:23:00,
2013-03-15 15:28:00,34.9,32.8,29.92,ESE,120,4.0,6.0,92,0.00,,,0.54,Wunderground v.1.15,2013-03-15 20:28:00,
2013-03-15 15:33:00,34.7,32.6,29.92,ENE,68,3.0,5.0,92,0.00,,,0.54,Wunderground v.1.15,2013-03-15 20:33:00,
2013-03-15 15:38:00,34.7,32.6,29.92,ENE,59,0.0,5.0,92,0.00,,,0.55,Wunderground v.1.15,2013-03-15 20:38:00,
2013-03-15 15:43:00,34.7,32.6,29.92,East,98,4.0,5.0,92,0.00,,,0.55,Wunderground v.1.15,2013-03-15 20:43:00,
2013-03-15 15:48:00,34.7,32.9,29.92,ESE,108,1.0,6.0,93,0.00,,,0.55,Wunderground v.1.15,2013-03-15 20:48:00,
2013-03-15 15:53:00,34.6,32.5,29.92,East,91,3.0,6.0,92,0.00,,,0.55,Wunderground v.1.15,2013-03-15 20:53:00,
2013-03-15 15:58:00,34.6,32.5,29.92,ESE,110,1.0,6.0,92,0.00,,,0.55,Wunderground v.1.15,2013-03-15 20:58:00,
2013-03-15 16:03:00,34.5,32.4,29.92,ESE,109,3.0,5.0,92,0.00,,,0.55,Wunderground v.1.15,2013-03-15 21:03:00,
2013-03-15 16:08:00,34.4,32.3,29.92,ESE,117,3.0,6.0,92,0.00,,,0.55,Wunderground v.1.15,2013-03-15 21:08:00,
2013-03-15 16:13:00,34.4,32.3,29.91,SE,130,5.0,6.0,92,0.00,,,0.55,Wunderground v.1.15,2013-03-15 21:13:00,
2013-03-15 16:18:00,34.4,32.3,29.92,ESE,107,5.0,7.0,92,0.00,,,0.55,Wunderground v.1.15,2013-03-15 21:18:00,
2013-03-15 16:23:00,34.4,32.3,29.91,ESE,111,6.0,6.0,92,0.00,,,0.55,Wunderground v.1.15,2013-03-15 21:23:00,
2013-03-15 16:28:00,34.4,32.3,29.91,ESE,111,3.0,10.0,92,0.00,,,0.55,Wunderground v.1.15,2013-03-15 21:28:00,
2013-03-15 16:33:00,34.3,32.2,29.91,ESE,115,6.0,6.0,92,0.00,,,0.55,Wunderground v.1.15,2013-03-15 21:33:00,
2013-03-15 16:38:00,34.4,32.3,29.91,SE,128,4.0,7.0,92,0.00,,,0.55,Wunderground v.1.15,2013-03-15 21:38:00,
2013-03-15 16:43:00,34.3,32.2,29.90,ESE,119,3.0,7.0,92,0.00,,,0.55,Wunderground v.1.15,2013-03-15 21:43:00,
2013-03-15 16:48:00,34.3,32.2,29.91,SE,138,3.0,9.0,92,0.00,,,0.55,Wunderground v.1.15,2013-03-15 21:48:00,
2013-03-15 16:53:00,34.3,32.2,29.91,ESE,116,10.0,12.0,92,0.00,,,0.55,Wunderground v.1.15,2013-03-15 21:53:00,
2013-03-15 16:58:00,34.3,32.2,29.91,ESE,111,1.0,12.0,92,0.00,,,0.55,Wunderground v.1.15,2013-03-15 21:58:00,
2013-03-15 17:03:00,34.2,32.1,29.90,ESE,103,4.0,9.0,92,0.00,,,0.55,Wunderground v.1.15,2013-03-15 22:03:00,
2013-03-15 17:08:00,34.1,32.0,29.90,ENE,76,5.0,10.0,92,0.00,,,0.55,Wunderground v.1.15,2013-03-15 22:08:00,
2013-03-15 17:13:00,33.9,31.8,29.89,ESE,118,7.0,10.0,92,0.00,,,0.55,Wunderground v.1.15,2013-03-15 22:13:00,
2013-03-15 17:18:00,33.8,31.7,29.89,East,82,6.0,10.0,92,0.00,,,0.55,Wunderground v.1.15,2013-03-15 22:18:00,
2013-03-15 17:24:00,33.6,31.5,29.89,ESE,121,10.0,12.0,92,0.00,,,0.55,Wunderground v.1.15,2013-03-15 22:24:00,
2013-03-15 17:29:00,33.4,31.3,29.89,ESE,106,5.0,12.0,92,0.00,,,0.55,Wunderground v.1.15,2013-03-15 22:29:00,
2013-03-15 17:35:00,33.4,31.3,29.89,East,92,9.0,11.0,92,0.00,,,0.55,Wunderground v.1.15,2013-03-15 22:35:00,
2013-03-15 17:40:00,33.2,31.1,29.88,ESE,105,7.0,7.0,92,0.00,,,0.55,Wunderground v.1.15,2013-03-15 22:40:00,
2013-03-15 17:45:00,33.1,31.0,29.88,East,97,7.0,13.0,92,0.00,,,0.55,Wunderground v.1.15,2013-03-15 22:45:00,
2013-03-15 17:50:00,33.1,31.0,29.88,SE,124,4.0,9.0,92,0.00,,,0.55,Wunderground v.1.15,2013-03-15 22:50:00,
2013-03-15 17:55:00,33.0,30.7,29.89,ESE,112,12.0,15.0,91,0.00,,,0.55,Wunderground v.1.15,2013-03-15 22:55:00,
2013-03-15 18:00:00,33.0,30.7,29.89,ESE,105,4.0,7.0,91,0.00,,,0.55,Wunderground v.1.15,2013-03-15 23:00:00,
2013-03-15 18:05:00,33.0,30.7,29.89,ESE,103,13.0,13.0,91,0.00,,,0.55,Wunderground v.1.15,2013-03-15 23:05:00,
2013-03-15 18:10:00,32.8,30.5,29.89,East,88,5.0,7.0,91,0.00,,,0.55,Wunderground v.1.15,2013-03-15 23:10:00,
2013-03-15 18:15:00,32.7,30.6,29.89,ESE,109,6.0,10.0,92,0.00,,,0.55,Wunderground v.1.15,2013-03-15 23:15:00,
2013-03-15 18:20:00,32.6,30.5,29.89,ENE,78,6.0,9.0,92,0.00,,,0.55,Wunderground v.1.15,2013-03-15 23:20:00,
2013-03-15 18:26:00,32.5,30.2,29.89,ESE,109,6.0,15.0,91,0.00,,,0.55,Wunderground v.1.15,2013-03-15 23:26:00,
2013-03-15 18:31:00,32.4,30.1,29.89,East,80,4.0,6.0,91,0.00,,,0.55,Wunderground v.1.15,2013-03-15 23:31:00,
2013-03-15 18:36:00,32.2,29.9,29.89,East,95,8.0,15.0,91,0.00,,,0.55,Wunderground v.1.15,2013-03-15 23:36:00,
2013-03-15 18:41:00,32.1,29.8,29.89,SE,132,4.0,7.0,91,0.00,,,0.55,Wunderground v.1.15,2013-03-15 23:41:00,
2013-03-15 18:47:00,32.0,29.7,29.89,ENE,76,3.0,10.0,91,0.00,,,0.55,Wunderground v.1.15,2013-03-15 23:47:00,
2013-03-15 18:53:00,32.0,29.7,29.89,ENE,59,4.0,5.0,91,0.00,,,0.55,Wunderground v.1.15,2013-03-15 23:53:00,
2013-03-15 18:58:00,31.9,29.6,29.89,ESE,105,5.0,12.0,91,0.00,,,0.55,Wunderground v.1.15,2013-03-15 23:58:00,
2013-03-15 19:03:00,31.9,29.3,29.89,ESE,112,5.0,10.0,90,0.00,,,0.55,Wunderground v.1.15,2013-03-16 00:03:00,
2013-03-15 19:08:00,31.9,29.3,29.90,East,92,13.0,13.0,90,0.00,,,0.55,Wunderground v.1.15,2013-03-16 00:08:00,
2013-03-15 19:13:00,31.9,29.3,29.90,East,88,3.0,9.0,90,0.00,,,0.55,Wunderground v.1.15,2013-03-16 00:13:00,
2013-03-15 19:18:00,31.9,29.3,29.90,East,88,3.0,10.0,90,0.00,,,0.55,Wunderground v.1.15,2013-03-16 00:18:00,
2013-03-15 19:23:00,31.8,29.2,29.90,East,79,10.0,12.0,90,0.00,,,0.55,Wunderground v.1.15,2013-03-16 00:23:00,
2013-03-15 19:28:00,31.8,29.2,29.90,East,92,5.0,13.0,90,0.00,,,0.55,Wunderground v.1.15,2013-03-16 00:28:00,
2013-03-15 19:34:00,31.8,28.9,29.90,East,86,5.0,12.0,89,0.00,,,0.55,Wunderground v.1.15,2013-03-16 00:34:00,
2013-03-15 19:39:00,31.7,28.8,29.90,East,88,11.0,12.0,89,0.00,,,0.55,Wunderground v.1.15,2013-03-16 00:39:00,
2013-03-15 19:44:00,31.7,28.8,29.92,East,88,7.0,10.0,89,0.00,,,0.55,Wunderground v.1.15,2013-03-16 00:44:00,
2013-03-15 19:49:00,31.7,28.8,29.92,ENE,73,4.0,10.0,89,0.00,,,0.55,Wunderground v.1.15,2013-03-16 00:49:00,
2013-03-15 19:55:00,31.6,28.7,29.92,East,89,4.0,8.0,89,0.00,,,0.55,Wunderground v.1.15,2013-03-16 00:55:00,
2013-03-15 20:00:00,31.5,28.6,29.91,SE,139,3.0,7.0,89,0.00,,,0.55,Wunderground v.1.15,2013-03-16 01:00:00,
2013-03-15 20:06:00,31.5,28.4,29.92,East,92,6.0,9.0,88,0.00,,,0.55,Wunderground v.1.15,2013-03-16 01:06:00,
2013-03-15 20:11:00,31.4,28.5,29.92,ESE,103,2.0,5.0,89,0.00,,,0.55,Wunderground v.1.15,2013-03-16 01:11:00,
2013-03-15 20:16:00,31.4,28.3,29.92,East,100,6.0,9.0,88,0.00,,,0.55,Wunderground v.1.15,2013-03-16 01:16:00,
2013-03-15 20:21:00,31.3,28.2,29.92,ESE,121,3.0,6.0,88,0.00,,,0.55,Wunderground v.1.15,2013-03-16 01:21:00,
2013-03-15 20:27:00,31.3,28.2,29.92,ESE,103,2.0,7.0,88,0.00,,,0.55,Wunderground v.1.15,2013-03-16 01:27:00,
2013-03-15 20:32:00,31.2,28.1,29.92,ESE,119,5.0,8.0,88,0.00,,,0.55,Wunderground v.1.15,2013-03-16 01:32:00,
2013-03-15 20:37:00,31.2,28.1,29.92,ENE,76,2.0,8.0,88,0.00,,,0.55,Wunderground v.1.15,2013-03-16 01:37:00,
2013-03-15 20:42:00,31.2,27.8,29.93,East,95,6.0,6.0,87,0.00,,,0.55,Wunderground v.1.15,2013-03-16 01:42:00,
2013-03-15 20:47:00,31.1,27.7,29.92,East,92,2.0,9.0,87,0.00,,,0.55,Wunderground v.1.15,2013-03-16 01:47:00,
2013-03-15 20:52:00,31.1,27.7,29.93,East,79,3.0,5.0,87,0.00,,,0.55,Wunderground v.1.15,2013-03-16 01:52:00,
2013-03-15 20:57:00,31.1,27.4,29.92,ESE,113,4.0,7.0,86,0.00,,,0.55,Wunderground v.1.15,2013-03-16 01:57:00,
2013-03-15 21:02:00,31.1,27.4,29.92,ESE,108,3.0,7.0,86,0.00,,,0.55,Wunderground v.1.15,2013-03-16 02:02:00,
2013-03-15 21:07:00,31.0,27.0,29.92,ESE,102,3.0,7.0,85,0.00,,,0.55,Wunderground v.1.15,2013-03-16 02:07:00,
2013-03-15 21:12:00,31.0,27.0,29.92,East,93,4.0,7.0,85,0.00,,,0.55,Wunderground v.1.15,2013-03-16 02:12:00,
2013-03-15 21:17:00,31.0,27.0,29.92,ESE,114,7.0,7.0,85,0.00,,,0.55,Wunderground v.1.15,2013-03-16 02:17:00,
2013-03-15 21:23:00,31.0,26.7,29.91,ESE,109,2.0,5.0,84,0.00,,,0.55,Wunderground v.1.15,2013-03-16 02:23:00,
2013-03-15 21:28:00,31.0,26.7,29.91,SE,139,2.0,6.0,84,0.00,,,0.55,Wunderground v.1.15,2013-03-16 02:28:00,
2013-03-15 21:33:00,31.0,26.7,29.90,SE,129,5.0,10.0,84,0.00,,,0.55,Wunderground v.1.15,2013-03-16 02:33:00,
2013-03-15 21:38:00,31.0,26.7,29.90,East,89,9.0,10.0,84,0.00,,,0.55,Wunderground v.1.15,2013-03-16 02:38:00,
2013-03-15 21:43:00,31.0,26.7,29.90,SE,138,2.0,10.0,84,0.00,,,0.55,Wunderground v.1.15,2013-03-16 02:43:00,
2013-03-15 21:48:00,31.0,26.7,29.90,East,101,5.0,10.0,84,0.00,,,0.55,Wunderground v.1.15,2013-03-16 02:48:00,
2013-03-15 21:53:00,31.0,26.7,29.90,ESE,105,3.0,7.0,84,0.00,,,0.55,Wunderground v.1.15,2013-03-16 02:53:00,
2013-03-15 21:58:00,31.0,26.7,29.90,SE,133,2.0,7.0,84,0.00,,,0.55,Wunderground v.1.15,2013-03-16 02:58:00,
2013-03-15 22:03:00,31.0,26.7,29.90,East,87,5.0,9.0,84,0.00,,,0.55,Wunderground v.1.15,2013-03-16 03:03:00,
2013-03-15 22:09:00,31.0,26.7,29.90,ESE,119,4.0,9.0,84,0.00,,,0.55,Wunderground v.1.15,2013-03-16 03:09:00,
2013-03-15 22:14:00,31.0,27.0,29.89,East,96,3.0,5.0,85,0.00,,,0.55,Wunderground v.1.15,2013-03-16 03:14:00,
2013-03-15 22:20:00,31.0,27.0,29.89,East,80,5.0,7.0,85,0.00,,,0.55,Wunderground v.1.15,2013-03-16 03:20:00,
2013-03-15 22:25:00,31.0,27.0,29.89,East,80,5.0,10.0,85,0.00,,,0.55,Wunderground v.1.15,2013-03-16 03:25:00,
2013-03-15 22:30:00,31.0,27.0,29.88,ESE,121,4.0,10.0,85,0.00,,,0.55,Wunderground v.1.15,2013-03-16 03:30:00,
2013-03-15 22:35:00,30.9,26.6,29.88,ENE,73,3.0,9.0,84,0.00,,,0.55,Wunderground v.1.15,2013-03-16 03:35:00,
2013-03-15 22:40:00,30.9,26.6,29.89,NE,43,3.0,3.0,84,0.00,,,0.55,Wunderground v.1.15,2013-03-16 03:40:00,
2013-03-15 22:45:00,30.9,26.6,29.88,ENE,66,4.0,6.0,84,0.00,,,0.55,Wunderground v.1.15,2013-03-16 03:45:00,
2013-03-15 22:50:00,31.0,26.7,29.88,ENE,69,9.0,9.0,84,0.00,,,0.55,Wunderground v.1.15,2013-03-16 03:50:00,
2013-03-15 22:55:00,30.9,26.3,29.88,ENE,71,4.0,12.0,83,0.00,,,0.55,Wunderground v.1.15,2013-03-16 03:55:00,
2013-03-15 23:00:00,30.9,26.3,29.88,NE,44,4.0,12.0,83,0.00,,,0.55,Wunderground v.1.15,2013-03-16 04:00:00,
2013-03-15 23:05:00,30.9,26.6,29.88,ENE,65,3.0,11.0,84,0.00,,,0.55,Wunderground v.1.15,2013-03-16 04:05:00,
2013-03-15 23:11:00,30.8,26.5,29.87,ENE,76,6.0,6.0,84,0.00,,,0.55,Wunderground v.1.15,2013-03-16 04:11:00,
2013-03-15 23:16:00,30.8,26.5,29.86,ESE,103,5.0,10.0,84,0.00,,,0.55,Wunderground v.1.15,2013-03-16 04:16:00,
2013-03-15 23:21:00,30.7,26.4,29.85,East,88,6.0,9.0,84,0.00,,,0.55,Wunderground v.1.15,2013-03-16 04:21:00,
2013-03-15 23:26:00,30.6,26.3,29.85,ENE,78,6.0,13.0,84,0.00,,,0.55,Wunderground v.1.15,2013-03-16 04:26:00,
2013-03-15 23:31:00,30.6,26.6,29.85,East,95,10.0,11.0,85,0.00,,,0.55,Wunderground v.1.15,2013-03-16 04:31:00,
2013-03-15 23:36:00,30.5,26.8,29.84,East,96,7.0,11.0,86,0.00,,,0.55,Wunderground v.1.15,2013-03-16 04:36:00,
2013-03-15 23:41:00,30.4,26.7,29.84,ESE,102,7.0,7.0,86,0.00,,,0.55,Wunderground v.1.15,2013-03-16 04:41:00,
2013-03-15 23:46:00,30.3,26.9,29.85,East,91,5.0,10.0,87,0.00,,,0.55,Wunderground v.1.15,2013-03-16 04:46:00,
2013-03-15 23:51:00,30.3,26.9,29.84,ESE,107,9.0,9.0,87,0.00,,,0.55,Wunderground v.1.15,2013-03-16 04:51:00,
2013-03-15 23:56:00,30.2,27.1,29.85,East,79,5.0,11.0,88,0.00,,,0.55,Wunderground v.1.15,2013-03-16 04:56:00,